Location: Hradec Kralove
(50.2170°N, 15.8330°E)
Time: 04:38:33
(UTC+01:00)

N. Korean satellite - Pass Details

Date: 07 December 2022
Orbit: 407 x 441 km, 97.3° (Epoch: 05 February)

Event Time Altitude Azimuth Distance (km) Brightness Sun altitude
Rises 05:32:37 0° 11° (N) 2,519 10.2 -19.6°
Reaches altitude 10° 05:34:41 10° 10° (N) 1,632 9.2 -19.2°
Maximum altitude 05:38:11 74° 286° (WNW) 487 6.3 -18.7°
Drops below altitude 10° 05:41:36 10° 201° (SSW) 1,591 9.1 -18.2°
Sets 05:43:36 0° 199° (SSW) 2,449 10.1 -17.9°
